Regional Weather Roundup
Issued by NWS

Home | Current Version | Previous Version | Text Only | Print | Product List | Glossary On
Versions: 1 2 3 4 5 6 7 8 9 10 11 12 13 14 15 16 17 18 19 20 21 22 23 24 25 26 27 28 29 30 31 32 33 34 35 36 37 38 39 40 41 42 43 44 45 46 47 48 49 50
000
ASUS43 KMPX 020910
RWRMN
WEATHER ROUNDUP FOR MINNESOTA
NATIONAL WEATHER SERVICE TWIN CITIES/CHANHASSEN MN
400 AM CDT THU OCT 02 2014


NOTE: "FAIR" INDICATES FEW OR NO CLOUDS BELOW 12,000 FEET WITH NO
SIGNIFICANT WEATHER AND/OR OBSTRUCTIONS TO VISIBILITY. N/A MEANS
CURRENT SKY AND/OR WEATHER CONDITIONS ARE NOT AVAILABLE.

MNZ060>063-068>070-021000-
   Twin Cities Metro

CITY           SKY/WX    TMP DP  RH WIND       PRES   REMARKS
TWIN CITIES    CLOUDY    57  56  96 CALM      29.83F FOG
ST PAUL        CLOUDY    57  57 100 CALM      29.84F FOG
CRYSTAL        CLOUDY    59  56  89 CALM      29.82F FOG
BLAINE         FOG       59  59 100 CALM      29.83F VSB 1/2
LAKEVILLE      CLOUDY    55  55 100 CALM      29.83F FOG
EDEN PRAIRIE   FOG       57  56  96 NE5       29.82F VSB 1/2
SOUTH ST PAUL  CLOUDY    57  56  97 CALM      29.83F FOG
LAKE ELMO      FOG       55  55 100 CALM      29.84F VSB 3/4
$$
MNZ001>005-007-008-013>017-022>024-027-028-021000-
   Northwest Minnesota

CITY           SKY/WX    TMP DP  RH WIND       PRES   REMARKS
BEMIDJI        CLOUDY    52  49  90 SW3       29.79F
HALLOCK        PTCLDY    46  45  93 SW5       29.76S
ROSEAU         PTCLDY    54  48  82 W6        29.76S
WARROAD        PTCLDY    52  48  87 W7        29.76S
THIEF RVR FALL MOCLDY    54  48  82 W8        29.79R
CROOKSTON      CLEAR     48  46  93 W7        29.81R
FOSSTON        PTCLDY    48  46  93 CALM      29.80F
DETROIT LAKES  CLEAR     54  50  87 W5        29.82S
PARK RAPIDS    MOCLDY    50  49  96 CALM      29.80F
MAHNOMEN       FAIR      48  46  93 W7        29.80F
$$
MNZ006-009>011-018-025>026-021000-
   North Central Minnesota

CITY           SKY/WX    TMP DP  RH WIND       PRES   REMARKS
BAUDETTE       CLOUDY    52  50  93 SW5       29.76R
FLAG ISLAND    MOCLDY    52  50  93 SW8       29.73R
INTL FALLS     MOCLDY    52  51  97 SW6       29.76R
WASKISH        CLOUDY    55  52  88 CALM      29.78S
BIG FORK       PTCLDY    52  50  93 S3        29.80S FOG
LONGVILLE      MOCLDY    48  46  93 CALM      29.80F FOG
GRAND RAPIDS   PTCLDY   N/A N/A N/A S3        29.80F
CRANE LAKE     CLOUDY    54  52  94 CALM      29.80R
ORR            CLOUDY    54  52  94 CALM      29.77S
COOK           CLOUDY    54  52  94 S6        29.81R FOG
WALKER         CLOUDY    51  49  92 SW3       29.79F
$$
MNZ012-019>021-037-021000-
   Northeast Minnesota

CITY           SKY/WX    TMP DP  RH WIND       PRES   REMARKS
DULUTH         FOG       53  51  93 SW7       29.84R VSB 1/2
ELY            CLOUDY    52  50  93 SW6       29.81R FOG
HIBBING        CLOUDY    54  52  93 SW3       29.81S
EVELETH        CLOUDY    52  52 100 SW8       29.83R FOG
DULUTH HARBOR  CLOUDY    54  52  94 W3        29.84R FOG
TWO HARBORS    CLOUDY    52  46  82 W3        29.81R HAZE
SILVER BAY     CLOUDY    50  50 100 S6        29.80R FOG
GRAND MARAIS     N/A     51  50  96 S5        29.81S
G MARAIS ARPRT FOG       48  45  87 SW6       29.81S VSB 1/4
$$
MNZ029>031-032-039>041-046>048-054>057-064-021000-
   West Central Minnesota

CITY           SKY/WX    TMP DP  RH WIND       PRES   REMARKS
FERGUS FALLS   MOCLDY    48  46  93 W5        29.84R
WHEATON        MOCLDY    50  46  87 W7        29.87R
MORRIS         PTCLDY    46  45  93 W6        29.84R
ALEXANDRIA     CLEAR     50  47  89 W8        29.84S
ELBOW LAKE     FAIR      47  46  97 SW5       29.85R
WADENA         PTCLDY    48  46  93 CALM      29.81S
GLENWOOD       CLEAR     45  45 100 W6        29.84R
APPLETON       PTCLDY    48  45  87 W3        29.84S
BENSON         CLEAR     45  45 100 NW3       29.85R
ORTONVILLE     PTCLDY    52  46  82 NW5       29.85S
MADISON        PTCLDY    52  48  87 W7        29.86R
WILLMAR        FOG       48  46  93 CALM      29.86R VSB 1/2
$$
MNZ033>034-036-042>043-049>051-058-059-021000-
   Central Minnesota

CITY           SKY/WX    TMP DP  RH WIND       PRES   REMARKS
ST CLOUD       CLOUDY    57  54  89 NW6       29.82F FOG
SAUK CENTRE    FOG       43  43 100 CALM      29.83S VSB 1/2
PAYNESVILLE    FOG       48  48 100 CALM      29.84R VSB 1/2
AITKIN         CLOUDY    55  50  82 CALM      29.81F HAZE
PINE RIVER     FOG       48  48 100 CALM      29.84F VSB<1/4
BRAINERD       CLOUDY    52  51  97 SW5       29.82F FOG
STAPLES        FOG       43  43 100 CALM      29.81F VSB 1/4
LONG PRAIRIE   SNOW      45  45 100 CALM      29.83S VSB 1/4
LITTLE FALLS   FOG       52  50  93 CALM      29.82F VSB 1/4
LITCHFIELD     FOG       55  55 100 CALM      29.83F VSB 1/4
BUFFALO        CLOUDY    56  54  92 CALM      29.84S FOG
MAPLE LAKE     CLOUDY    56  56  99 NW3       29.84R FOG
$$
MNZ037-044-045-052-053-021000-
   East Central Minnesota

CITY           SKY/WX    TMP DP  RH WIND       PRES   REMARKS
PRINCETON      CLOUDY    57  55  94 NW2       29.83F
MORA           CLOUDY    54  52  94 CALM      29.85S FOG
CAMBRIDGE      CLOUDY    57  52  82 CALM      29.82S HAZE
RUSH CITY      CLOUDY    54  54  98 CALM      29.85S FOG
MOOSE LAKE     CLOUDY    52  52 100 CALM      29.82S FOG
HINCKLEY       CLOUDY    54  54 100 CALM      29.84S FOG
CLOQUET        CLOUDY    52  52 100 CALM      29.83S FOG
MCGREGOR       CLOUDY    54  54 100 SW3       29.83F
$$
MNZ071>073-080-081-089-090-097-098-021000-
   Southwest Minnesota

CITY           SKY/WX    TMP DP  RH WIND       PRES   REMARKS
MONTEVIDEO     CLEAR     52  48  87 NW5       29.86R
GRANITE FALLS  PTCLDY    47  47  99 W6        29.86R
CANBY          PTCLDY    50  47  90 W5        29.87S
MARSHALL       CLEAR     46  43  87 NW8       29.84F
REDWOOD FALLS  CLEAR     53  52  96 NW5       29.83S
OLIVIA         PTCLDY    50  46  87 N6        29.83S FOG
PIPESTONE      CLEAR     52  46  82 N7        29.85S
WINDOM         CLEAR     54  52  94 N5        29.83S
WORTHINGTON    PTCLDY    52  48  87 N6        29.84S
JACKSON        FOG       57  55  94 N6        29.83S VSB 1/2
TRACY          CLEAR     51  49  92 NW7       29.85S
SLAYTON        CLEAR     51  49  93 NW8       29.85S
$$
MNZ065>067-074>077-082>085-091>093-021000-
   South Central Minnesota

CITY           SKY/WX    TMP DP  RH WIND       PRES   REMARKS
MANKATO        CLOUDY    57  54  88 NE6       29.82S VSB 1/2
NEW ULM        FOG       54  54 100 CALM      29.82S VSB 1/4
ST JAMES       FOG       61  57  88 CALM      29.83S VSB 1
FAIRMONT       CLOUDY    54  50  87 NE3       29.82R VSB 1/2
GLENCOE        FOG       56  57 100 N3        29.82S VSB 1/2
FARIBAULT      CLOUDY    57  57 100 CALM      29.83S FOG
OWATONNA       MOCLDY    55  54  94 CALM      29.82S FOG
WASECA         CLOUDY    54  50  87 N5        29.83S FOG
ALBERT LEA     FOG       54  54 100 CALM      29.81S VSB<1/4
$$
MNZ078>079-086>088-094>096-021000-
   Southeast Minnesota

CITY           SKY/WX    TMP DP  RH WIND       PRES   REMARKS
ROCHESTER      CLOUDY    54  53  97 NE5       29.83F FOG
RED WING         N/A     52  50  93 CALM      29.83R FOG
STANTON        CLOUDY    58  56  94 CALM      29.82S FOG
DODGE CENTER   FOG       55  54  94 E3        29.83F VSB 3/4
WINONA         FOG       54  54 100 CALM      29.83F VSB 3/4
AUSTIN         FOG       54  54 100 CALM      29.81F VSB<1/4
PRESTON        FOG       53  52  97 CALM      29.83F VSB<1/4
$$
ABBREVIATIONS USED IN REMARKS
   TC - TEMPERATURES IN CELSIUS
  WCI - WIND CHILL INDEX
   HX - HEAT INDEX
  VSB - VISIBILITY
$$



USA.gov is the U.S. government's official web portal to all federal, state and local government web resources and services.